[[{"header":{"parameterUnit":"m.s-1","parameterCategory":1,"la1":30.2991,"la2":30.254,"lo1":-89.0895,"lo2":-89.0444,"dy":0.0017,"dx":0.0017,"nx":28,"ny":28,"refTime":"2025-09-17T03:00:00:Z","depth":0,"parameterNumber":2,"parameterNumberName":"U-component_of_WINDS"},"data":[0,0,0,0,0,0,0,0,0,0,0,0,0,0,0,0,0,0,0,0,0,0,0,0,0,0,0,0,0,0,0,0,0,0,0,0,0,0,0,0,0,0,0,0,0,0,0,0,0,0,0,0,0,0,0,0,0,0,-0.2366,-0.2365,0,-0.2303,-0.2302,-0.2301,-0.2275,-0.2275,-0.2275,-0.2276,-0.2209,-0.2207,-0.2205,0,0,0,0,0,0,0,0,0,0,0,0,0,-0.2465,-0.2463,-0.2366,-0.2365,-0.2364,-0.2303,-0.2302,-0.2301,-0.2275,-0.2275,-0.2276,-0.2276,-0.221,-0.2208,-0.2205,0,0,0,0,0,0,0,0,0,0,0,0,0,-0.2414,-0.2463,-0.2366,-0.2344,-0.2341,-0.2303,-0.2302,-0.2301,-0.2275,-0.2275,-0.2276,-0.2276,-0.2211,-0.2208,-0.2205,-0.2183,0,0,-0.2196,-0.2195,0,0,0,0,0,0,0,0,-0.2417,-0.241,-0.2348,-0.2346,-0.2343,-0.2297,-0.2312,-0.2261,-0.2275,-0.23,-0.2276,-0.2276,-0.2238,-0.2233,-0.2221,-0.218,-0.2177,-0.2196,-0.2194,-0.2193,-0.2192,0,0,0,0,0,0,0,-0.242,-0.2413,-0.2341,-0.2347,-0.2344,-0.2338,-0.2331,-0.2303,-0.2269,-0.2298,-0.2296,-0.2289,-0.2237,-0.2223,-0.2219,-0.2176,-0.2196,-0.2194,-0.2192,-0.2191,-0.2117,-0.2117,0,0,0,0,0,0,-0.2428,-0.2416,-0.2343,-0.2339,-0.2381,-0.2336,-0.2328,-0.2311,-0.2269,-0.2263,-0.2289,-0.2288,-0.2228,-0.2222,-0.2216,-0.219,-0.2193,-0.219,-0.2189,-0.2117,-0.2117,-0.2117,0,0,0,0,0,0,-0.243,-0.2421,-0.2345,-0.2377,-0.2367,-0.2334,-0.2316,-0.231,-0.2297,-0.2262,-0.2256,-0.2282,-0.2228,-0.222,-0.2192,-0.2187,-0.2189,-0.2187,-0.2118,-0.2117,-0.2117,-0.2135,0,0,0,0,0,0,-0.2433,-0.2422,-0.2413,-0.2377,-0.2365,-0.2322,-0.2315,-0.2309,-0.2292,-0.229,-0.2254,-0.2248,-0.2228,-0.2197,-0.219,-0.2183,-0.2184,-0.2118,-0.2118,-0.2117,-0.2135,-0.2135,-0.2136,0,0,0,0,0,-0.2436,-0.242,-0.2413,-0.2404,-0.2353,-0.2322,-0.2315,-0.2293,-0.2292,-0.2283,-0.2261,-0.2249,-0.2189,-0.2194,-0.2186,-0.2178,-0.2118,-0.2118,-0.2117,-0.2134,-0.2135,-0.2136,0,0,0,0,0,0,-0.2455,-0.2415,-0.2406,-0.2377,-0.2354,-0.2317,-0.2305,-0.2294,-0.2269,-0.2269,-0.2242,-0.2234,-0.2208,-0.219,-0.2197,-0.2156,-0.2153,-0.215,-0.2169,-0.2169,-0.217,-0.2174,-0.2182,0,0,0,0,0,-0.2456,-0.2434,-0.24,-0.2378,-0.2366,-0.2338,-0.2323,-0.2309,-0.2283,-0.2272,-0.2248,-0.2223,-0.2199,-0.2183,-0.2158,-0.2132,-0.2125,-0.2123,-0.2124,-0.2124,-0.2123,-0.211,-0.2109,-0.2115,-0.2115,-0.2115,0,0,-0.2457,-0.2433,-0.242,-0.2381,-0.236,-0.2339,-0.2329,-0.2306,-0.229,-0.2268,-0.2241,-0.2223,-0.2193,-0.2166,-0.2153,-0.215,-0.212,-0.2124,-0.2124,-0.2122,-0.2109,-0.2109,-0.2108,-0.2115,-0.2115,-0.2115,0,0,-0.2449,-0.2427,-0.2407,-0.2388,-0.2358,-0.234,-0.2335,-0.2302,-0.2289,-0.2261,-0.2245,-0.2226,-0.2184,-0.2164,-0.2149,-0.2136,-0.2125,-0.2129,-0.2131,-0.2119,-0.2119,-0.2118,-0.2115,-0.2114,-0.2128,-0.2128,-0.2128,0,-0.2454,-0.242,-0.2399,-0.2377,-0.2361,-0.2342,-0.2323,-0.2305,-0.2268,-0.2257,-0.2255,-0.2204,-0.2183,-0.2152,-0.215,-0.2137,-0.2132,-0.2133,-0.2121,-0.212,-0.2119,-0.2116,-0.2114,-0.2128,-0.2128,-0.2128,-0.2128,0,-0.2429,-0.2406,-0.2394,-0.2361,-0.2343,-0.2323,-0.2299,-0.2284,-0.2272,-0.2254,-0.2227,-0.2202,-0.2173,-0.2164,-0.2151,-0.2133,-0.2132,-0.2126,-0.2122,-0.212,-0.2116,-0.2114,-0.2129,-0.2129,-0.2129,-0.2129,0,0,-0.2428,-0.2385,-0.2381,-0.2367,-0.2334,-0.2316,-0.2295,-0.2268,-0.2257,-0.2233,-0.2215,-0.2182,-0.2177,-0.2159,-0.2144,-0.2134,-0.2128,-0.2129,-0.2128,-0.213,-0.2107,-0.2113,-0.2111,-0.212,-0.212,-0.2119,-0.211,0,-0.2415,-0.2378,-0.2359,-0.233,-0.231,-0.2293,-0.2276,-0.2254,-0.2238,-0.2219,-0.2201,-0.2178,-0.2172,-0.2162,-0.2151,-0.2131,-0.2123,-0.2131,-0.2104,-0.2103,-0.2112,-0.2109,-0.2114,-0.2106,-0.2108,-0.2108,-0.2108,0,-0.2394,-0.2373,-0.2342,-0.2314,-0.2305,-0.2289,-0.2264,-0.2246,-0.2222,-0.2211,-0.2193,-0.2179,-0.2158,-0.2157,-0.2128,-0.2134,-0.2122,-0.2111,-0.211,-0.2107,-0.2105,-0.2106,-0.2103,-0.2102,-0.2105,-0.2105,-0.2106,0,-0.2398,-0.2361,-0.2338,-0.2326,-0.2293,-0.2283,-0.2268,-0.2244,-0.223,-0.2208,-0.2199,-0.2175,-0.2162,-0.2144,-0.2124,-0.2124,-0.2098,-0.2094,-0.2089,-0.2089,-0.2083,-0.2084,-0.2078,-0.2075,-0.2075,-0.2075,-0.2075,0,-0.2386,-0.2368,-0.234,-0.2326,-0.2306,-0.2286,-0.2267,-0.2251,-0.223,-0.2214,-0.2198,-0.2183,-0.2158,-0.214,-0.2124,-0.2104,-0.2097,-0.2089,-0.2085,-0.209,-0.2091,-0.2082,-0.2082,-0.2075,-0.2075,-0.2075,-0.2075,0,-0.2386,-0.2366,-0.2341,-0.2312,-0.2304,-0.2291,-0.2267,-0.2253,-0.2237,-0.2217,-0.2211,-0.2186,-0.2164,-0.2143,-0.2113,-0.2103,-0.2083,-0.2078,-0.2091,-0.2089,-0.2085,-0.2086,-0.2074,-0.2072,-0.207,-0.207,-0.207,0,-0.2379,-0.2365,-0.2336,-0.2324,-0.231,-0.2291,-0.2277,-0.2257,-0.2244,-0.2217,-0.2207,-0.2185,-0.2165,-0.2132,-0.2111,-0.2089,-0.2083,-0.208,-0.2079,-0.2086,-0.2084,-0.2085,-0.2084,-0.2081,-0.2081,-0.2081,-0.2081,0,-0.2369,-0.2361,-0.2342,-0.232,-0.2305,-0.2286,-0.2267,-0.2259,-0.2235,-0.2221,-0.2199,-0.2185,-0.2156,-0.2134,-0.211,-0.2095,-0.2085,-0.2082,-0.2079,-0.2084,-0.2093,-0.209,-0.2093,-0.2082,-0.2082,-0.2082,-0.2081,-0.2081,-0.2366,-0.2354,-0.2332,-0.2312,-0.2296,-0.228,-0.2267,-0.225,-0.2232,-0.2208,-0.2197,-0.2176,-0.2154,-0.2121,-0.2107,-0.2091,-0.2088,-0.2084,-0.2083,-0.2083,-0.2085,-0.2097,-0.2086,-0.2086,-0.2086,-0.2086,-0.2086,0,-0.2357,-0.2343,-0.2324,-0.23,-0.2284,-0.2277,-0.2256,-0.2244,-0.2226,-0.2207,-0.2189,-0.2166,-0.2145,-0.2124,-0.2103,-0.2094,-0.2088,-0.2089,-0.2089,-0.2086,-0.2088,-0.2092,-0.2094,-0.2094,-0.2094,-0.2094,-0.2094,-0.2094,-0.235,-0.233,-0.2319,-0.2292,-0.2278,-0.2258,-0.2247,-0.2232,-0.2217,-0.2192,-0.2175,-0.2162,-0.2143,-0.2121,-0.2102,-0.2097,-0.209,-0.2092,-0.2085,-0.2086,-0.2086,-0.2085,-0.209,-0.209,-0.209,-0.2085,-0.2085,-0.2085]},{"header":{"parameterUnit":"m.s-1","parameterCategory":1,"la1":30.2991,"la2":30.254,"lo1":-89.0895,"lo2":-89.0444,"dy":0.0017,"dx":0.0017,"nx":28,"ny":28,"refTime":"2025-09-17T03:00:00:Z","depth":0,"parameterNumber":3,"parameterNumberName":"V-component_of_WINDS"},"data":[0,0,0,0,0,0,0,0,0,0,0,0,0,0,0,0,0,0,0,0,0,0,0,0,0,0,0,0,0,0,0,0,0,0,0,0,0,0,0,0,0,0,0,0,0,0,0,0,0,0,0,0,0,0,0,0,0,0,3.048,3.0479,0,3.0368,3.0366,3.0365,3.0366,3.0367,3.0369,3.037,3.0245,3.024,3.0235,0,0,0,0,0,0,0,0,0,0,0,0,0,3.0684,3.0681,3.048,3.0478,3.0477,3.0368,3.0366,3.0365,3.0366,3.0367,3.0369,3.0371,3.0246,3.0241,3.0235,0,0,0,0,0,0,0,0,0,0,0,0,0,3.0586,3.0679,3.048,3.0465,3.0462,3.0368,3.0366,3.0364,3.0365,3.0367,3.037,3.0372,3.0248,3.0241,3.0234,3.0145,0,0,3.0212,3.0209,0,0,0,0,0,0,0,0,3.0592,3.0578,3.0468,3.0465,3.0463,3.0383,3.0392,3.029,3.0365,3.0402,3.037,3.0373,3.0288,3.0278,3.0252,3.0139,3.0134,3.0212,3.0208,3.0204,3.0202,0,0,0,0,0,0,0,3.0598,3.0583,3.0435,3.0467,3.0463,3.046,3.0448,3.0373,3.0333,3.0399,3.0398,3.0386,3.0287,3.0259,3.0249,3.0132,3.0212,3.0206,3.0201,3.0199,2.9939,2.9936,0,0,0,0,0,0,3.061,3.0589,3.0439,3.0432,3.0534,3.0454,3.0442,3.0406,3.0334,3.0326,3.0384,3.0386,3.027,3.0257,3.0244,3.0134,3.0205,3.0198,3.0194,2.9941,2.9938,2.9935,0,0,0,0,0,0,3.0614,3.0596,3.0443,3.051,3.0491,3.0449,3.0409,3.0403,3.0374,3.0323,3.0315,3.0363,3.0271,3.0254,3.017,3.0129,3.0195,3.0188,2.9944,2.994,2.9937,2.9913,0,0,0,0,0,0,3.062,3.0598,3.0566,3.051,3.0487,3.0374,3.0406,3.0399,3.0363,3.0365,3.0301,3.0293,3.0271,3.0181,3.0163,3.0121,3.0183,2.9948,2.9943,2.9938,2.9917,2.9908,2.9901,0,0,0,0,0,3.0627,3.0562,3.0565,3.0546,3.0447,3.0372,3.0358,3.0338,3.036,3.0326,3.0293,3.0295,3.0138,3.0172,3.0152,3.0107,2.995,2.9944,2.9938,2.992,2.991,2.9901,0,0,0,0,0,0,3.061,3.0554,3.0556,3.0471,3.0427,3.0372,3.0328,3.0328,3.0273,3.0277,3.0251,3.0237,3.0152,3.0121,3.0161,3.0016,3.0046,3.0036,3.0039,3.0029,3.0021,3.0029,3.0177,0,0,0,0,0,3.0598,3.0545,3.0497,3.0426,3.0404,3.037,3.0337,3.0325,3.0276,3.0256,3.0217,3.0167,3.0106,3.0066,3.0007,2.9913,2.9898,2.9872,2.9865,2.9858,2.9849,2.9794,2.9782,2.9916,2.9916,2.9916,0,0,3.0569,3.0532,3.0499,3.0422,3.0386,3.0328,3.0354,3.0292,3.0248,3.0246,3.0164,3.0134,3.0076,2.9986,2.9944,2.9958,2.9809,2.9851,2.9846,2.984,2.9787,2.9774,2.9763,2.9912,2.9913,2.9913,0,0,3.0486,3.0455,3.0391,3.0356,3.0303,3.0281,3.0266,3.0211,3.0192,3.0111,3.0108,3.0053,2.995,2.9908,2.9873,2.9776,2.9774,2.9758,2.9715,2.9663,2.9652,2.9642,2.9605,2.9592,2.9749,2.9749,2.9749,0,3.0456,3.0373,3.0358,3.0296,3.0261,3.0261,3.0195,3.016,3.0088,3.0062,3.008,2.995,2.991,2.981,2.9787,2.9759,2.9738,2.9763,2.9656,2.9646,2.9636,2.96,2.9587,2.9747,2.9747,2.9747,2.9748,0,3.0337,3.0279,3.0234,3.0169,3.0129,3.0065,3.0037,2.9998,2.9991,2.9966,2.9882,2.9836,2.9767,2.9743,2.9733,2.964,2.965,2.9662,2.969,2.9622,2.9588,2.9574,2.9744,2.9745,2.9746,2.9746,0,0,3.0238,3.0168,3.0151,3.0121,3.0063,3.0015,2.9951,2.9887,2.9853,2.9804,2.9746,2.9659,2.967,2.9631,2.9617,2.9571,2.9494,2.9588,2.9586,2.957,2.9386,2.9375,2.936,2.9495,2.9492,2.949,2.939,0,3.0147,3.0036,3.0021,2.9921,2.9865,2.9865,2.9808,2.9764,2.974,2.9686,2.9658,2.9596,2.9616,2.9592,2.9547,2.9514,2.9457,2.9521,2.9437,2.9434,2.9449,2.9342,2.9331,2.9238,2.9376,2.9374,2.9373,0,3.0026,2.9978,2.9873,2.9822,2.9798,2.9748,2.9688,2.9638,2.9587,2.9573,2.953,2.9522,2.9451,2.9486,2.9386,2.943,2.9395,2.9373,2.9369,2.9358,2.9397,2.9325,2.9209,2.9194,2.9352,2.9353,2.9355,0,2.9962,2.987,2.9795,2.9769,2.9709,2.9673,2.9645,2.9598,2.956,2.9507,2.9482,2.942,2.9385,2.9336,2.931,2.9338,2.9211,2.9244,2.9193,2.9194,2.9164,2.9165,2.9037,2.9146,2.9147,2.9147,2.9147,0,2.986,2.9795,2.9765,2.9718,2.9645,2.9628,2.9554,2.9527,2.9485,2.943,2.9426,2.9374,2.9346,2.9289,2.9268,2.9187,2.9172,2.9155,2.915,2.9154,2.9156,2.9128,2.9133,2.9143,2.9144,2.9145,2.9145,0,2.9774,2.9752,2.967,2.962,2.9606,2.9554,2.951,2.9463,2.944,2.9371,2.9354,2.9316,2.9249,2.922,2.9136,2.9122,2.9029,2.903,2.9047,2.9044,2.8994,2.8998,2.8841,2.8818,2.8945,2.8944,2.8943,0,2.9709,2.966,2.9606,2.9572,2.9544,2.9488,2.945,2.9431,2.9392,2.9331,2.929,2.9224,2.917,2.9062,2.9025,2.8961,2.8958,2.8907,2.8948,2.8953,2.8953,2.8956,2.8949,2.8899,2.8897,2.8896,2.8896,0,2.9596,2.9588,2.9536,2.948,2.9437,2.9391,2.9346,2.9317,2.929,2.9245,2.9179,2.9137,2.9054,2.8987,2.8921,2.8888,2.8885,2.8884,2.8868,2.887,2.8881,2.8872,2.9023,2.8887,2.8888,2.8888,2.8889,2.8889,2.9516,2.9472,2.9428,2.937,2.9335,2.9293,2.9247,2.9219,2.9164,2.9097,2.9089,2.9016,2.8966,2.8877,2.8843,2.8784,2.8796,2.8773,2.8767,2.8761,2.8757,2.8894,2.8772,2.8772,2.8772,2.8772,2.8772,0,2.94,2.9373,2.932,2.9259,2.9213,2.922,2.917,2.913,2.9068,2.9023,2.8971,2.8893,2.8828,2.8787,2.8721,2.8682,2.8679,2.8664,2.8665,2.8657,2.8751,2.877,2.8668,2.8668,2.8668,2.8668,2.8668,2.8668,2.9335,2.9259,2.9246,2.9152,2.9124,2.9056,2.9027,2.8987,2.8951,2.8866,2.8814,2.8789,2.8744,2.8675,2.8615,2.8605,2.8579,2.8564,2.8553,2.864,2.8651,2.8661,2.8679,2.8559,2.8559,2.8463,2.8463,2.8462]}]]